Stations météo

réclame
Mon MeteoGroup
Millau, France (7558): Température de l'air & dewpoint: 29.05.2020 04:00:00 - 04.06.2020 04:00:00 (CEST)Millau, France (7558): Température de l'air 5cm: 29.05.2020 04:00:00 - 04.06.2020 04:00:00 (CEST)Millau, France (7558): Température de l'air -20cm & Température de l'air -100cm: 29.05.2020 04:00:00 - 04.06.2020 04:00:00 (CEST)Millau, France (7558): Vitesse du vent & gusts: 29.05.2020 04:00:00 - 04.06.2020 04:00:00 (CEST)Millau, France (7558): Direction du vent: 29.05.2020 04:00:00 - 04.06.2020 04:00:00 (CEST)Millau, France (7558): reduced air pressure: 29.05.2020 04:00:00 - 04.06.2020 04:00:00 (CEST)Millau, France (7558): visibility: 29.05.2020 04:00:00 - 04.06.2020 04:00:00 (CEST)Millau, France (7558): Ensoleillement: 29.05.2020 04:00:00 - 04.06.2020 04:00:00 (CEST)Millau, France (7558): Quantités de précipitations: 29.05.2020 04:00:00 - 04.06.2020 04:00:00 (CEST)
Date & Time tt [°C] td [°C] tt 5cm [°C] tt -20cm [°C] tt -100cm [°C] ff [km/h] ff [knt] fx [km/h] fx [knt] dd ppp [hPa] vv [km] sd [min] rr [mm]
04.06.2020 04:00:00 12,7 10,9 12,4 20,2 17,4 0 0 6 4 N 1002,1 20 0 0,0
04.06.2020 03:00:00 12,7 12,1 12,8 20,3 17,4 5 3 16 8 NW 1002,8 19 0 0,2
04.06.2020 02:00:00 13,1 12,3 12,4 20,4 17,4 8 4 16 9 WSW 1003,4 18 0 1,0
04.06.2020 01:00:00 13,2 11,6 12,6 20,4 17,4 16 9 34 18 NW 1004,2 14 0 1,6
04.06.2020 00:00:00 15,3 12,2 14,5 20,5 17,3 18 10 26 14 WSW 1003,7 20 0 0,0
03.06.2020 23:00:00 15,0 11,8 14,2 20,5 17,3 9 5 18 10 SSW 1004,2 20 0 0,0
03.06.2020 22:00:00 15,4 11,6 14,9 20,5 17,4 14 7 31 17 SW 1004,2 20 0 0,0
03.06.2020 21:00:00 16,1 10,0 15,8 20,4 17,4 20 11 28 15 SW 1004,1 20 0 0,0
03.06.2020 20:00:00 17,5 11,1 18,0 20,2 17,2 16 9 41 22 SSW 1003,6 20 0 0,0
03.06.2020 19:00:00 19,3 11,6 20,0 20,2 17,3 29 15 49 26 W 1003,0 20 0 0,0
03.06.2020 18:00:00 20,7 9,3 21,3 20,0 17,3 24 13 39 21 SW 1002,5 20 20 0,0
03.06.2020 17:00:00 21,6 11,6 25,0 19,8 17,3 22 12 41 22 SSW 1002,8 20 37 0,0
03.06.2020 16:00:00 22,4 13,2 26,4 19,7 17,3 26 14 49 27 SW 1003,2 20 47 0,0
03.06.2020 15:00:00 24,2 11,2 24,9 19,5 17,3 21 11 34 18 WSW 1003,4 20 37 0,0
03.06.2020 14:00:00 24,0 11,0 27,1 19,4 17,3 20 11 33 18 WSW 1004,1 20 52 0,0
03.06.2020 13:00:00 23,1 11,2 25,7 19,3 17,3 17 9 29 16 WSW 1005,3 20 55 0,0
03.06.2020 12:00:00 22,2 12,4 31,6 19,3 17,3 18 10 29 16 SSW 1006,2 20 60 0,0
03.06.2020 11:00:00 19,8 12,8 29,4 19,3 17,3 10 6 16 9 SSW 1007,6 20 60 0,0
03.06.2020 10:00:00 19,0 13,4 24,1 19,4 17,3 3 1 9 5 S 1008,2 20 60 0,0
03.06.2020 09:00:00 17,2 13,3 18,4 19,5 17,2 3 2 8 4 ESE 1009,1 20 60 0,0
03.06.2020 08:00:00 14,9 12,8 13,1 19,6 17,3 4 2 6 3 NE 1009,8 20 60 0,0
03.06.2020 07:00:00 13,3 12,2 10,5 19,7 17,2 3 1 4 2 S 1010,5 20 26 0,0
03.06.2020 06:00:00 13,1 11,8 10,5 19,8 17,2 0 0 6 3 N 1010,7 20 0 0,2
03.06.2020 05:00:00 13,5 12,2 11,0 19,8 17,2 4 2 7 4 NE 1011,0 20 0 0,0
03.06.2020 04:00:00 13,9 12,3 11,7 19,9 17,2 0 0 8 4 N 1011,3 20 0 0,0
03.06.2020 03:00:00 14,2 12,6 13,0 20,0 17,2 6 3 11 6 ENE 1011,9 20 0 0,0
03.06.2020 02:00:00 15,1 13,0 13,5 20,0 17,2 0 0 10 6 N 1012,5 20 0 0,0
03.06.2020 01:00:00 15,6 13,1 14,4 20,1 17,2 5 3 9 5 NE 1012,9 20 0 0,0
03.06.2020 00:00:00 16,8 12,3 14,8 20,1 17,2 4 2 9 5 N 1012,7 20 0 0,0
02.06.2020 23:00:00 16,9 12,2 15,0 20,0 17,2 3 2 6 3 N 1013,0 20 0 0,0
02.06.2020 22:00:00 17,2 13,1 15,4 20,0 17,2 3 2 18 10 SSE 1012,6 20 0 0,0
02.06.2020 21:00:00 17,0 13,3 15,3 19,9 17,2 9 5 26 14 NNW 1012,7 20 0 0,4
02.06.2020 20:00:00 16,7 13,2 16,3 19,8 17,2 23 13 42 23 NNE 1012,8 16 8 0,4
02.06.2020 19:00:00 24,0 9,2 22,0 19,6 17,2 13 7 24 13 W 1010,5 20 36 0,0
02.06.2020 18:00:00 21,8 9,7 22,5 19,4 17,2 10 5 27 15 SSW 1011,6 20 30 0,0
02.06.2020 17:00:00 23,5 10,2 28,1 19,1 17,2 15 8 26 14 SSW 1011,6 20 57 0,0
02.06.2020 16:00:00 22,9 10,0 26,1 18,9 17,2 10 5 27 14 SSE 1012,2 20 39 0,0
02.06.2020 15:00:00 23,0 8,7 26,0 18,8 17,2 11 6 22 12 E 1012,6 20 56 0,0
02.06.2020 14:00:00 22,1 9,3 26,7 18,6 17,2 4 2 15 8 SW 1013,4 20 37 0,0
02.06.2020 13:00:00 21,7 9,6 29,6 18,5 17,2 9 5 21 11 S 1013,8 20 60 0,0
02.06.2020 12:00:00 20,4 9,6 28,2 18,5 17,2 5 3 15 8 SSE 1014,6 20 60 0,0
02.06.2020 11:00:00 19,3 10,8 26,0 18,5 17,2 5 3 17 9 ESE 1015,2 20 60 0,0
02.06.2020 10:00:00 17,8 9,9 20,2 18,5 17,2 4 2 9 5 E 1015,8 20 60 0,0
02.06.2020 09:00:00 15,3 10,5 18,3 18,6 17,2 6 3 11 6 NE 1016,4 20 38 0,0
02.06.2020 08:00:00 13,9 10,9 14,4 18,7 17,2 8 4 10 5 NNE 1016,6 20 38 0,0
02.06.2020 07:00:00 13,3 10,5 12,8 18,7 17,2 0 0 8 5 N 1016,6 20 9 0,0
02.06.2020 06:00:00 12,9 10,4 12,0 18,8 17,2 8 4 11 6 NE 1016,5 20 0 0,0
02.06.2020 05:00:00 13,2 10,2 10,8 18,9 17,2 3 2 7 4 NE 1016,4 20 0 0,0
02.06.2020 04:00:00 12,9 10,4 11,3 18,9 17,2 4 2 8 4 ENE 1016,6 20 0 0,0
02.06.2020 03:00:00 13,0 10,7 12,2 18,9 17,2 6 4 11 6 N 1016,9 20 0 0,0
02.06.2020 02:00:00 13,3 10,8 12,2 19,0 17,2 5 3 14 8 E 1016,8 20 0 0,0
02.06.2020 01:00:00 14,1 10,1 12,8 19,1 17,2 5 3 10 6 E 1016,6 20 0 0,0
02.06.2020 00:00:00 14,2 10,2 12,9 19,1 17,2 4 2 14 7 S 1017,4 20 0 0,0
01.06.2020 23:00:00 14,1 9,9 12,2 19,1 17,2 13 7 18 10 SSE 1017,4 20 0 0,0
01.06.2020 22:00:00 14,3 10,7 13,8 19,1 17,2 16 9 21 11 SE 1016,3 20 0 0,0
01.06.2020 21:00:00 15,6 11,4 15,3 19,1 17,2 10 6 21 11 ESE 1016,0 20 0 0,0
01.06.2020 20:00:00 16,4 11,8 16,8 19,0 17,2 16 9 25 13 SE 1015,3 20 3 0,0
01.06.2020 19:00:00 17,3 12,0 18,5 18,9 17,2 15 8 24 13 S 1015,2 20 27 0,0
01.06.2020 18:00:00 17,8 12,3 19,1 18,9 17,2 13 7 34 18 SSE 1014,9 20 0 0,0
01.06.2020 17:00:00 18,8 11,4 21,7 18,8 17,2 20 11 33 18 S 1015,1 20 29 0,0
01.06.2020 16:00:00 19,3 10,8 21,0 18,8 17,2 18 10 34 19 SSE 1014,9 20 5 0,0
01.06.2020 15:00:00 18,9 11,5 21,3 18,8 17,1 22 12 36 19 SE 1015,0 20 11 0,0
01.06.2020 14:00:00 18,4 11,7 19,2 18,7 17,2 22 12 41 22 ESE 1015,3 19 25 0,0
01.06.2020 13:00:00 17,4 11,4 18,7 18,8 17,2 24 13 37 20 SE 1015,6 20 5 0,0
01.06.2020 12:00:00 16,7 11,4 17,8 18,8 17,2 21 11 36 20 SSE 1015,7 20 2 0,0
01.06.2020 11:00:00 16,5 11,2 17,0 18,9 17,2 26 14 34 19 SSE 1015,6 20 6 0,0
01.06.2020 10:00:00 15,6 12,0 15,8 19,0 17,1 15 8 25 13 SSE 1015,8 20 20 0,0
01.06.2020 09:00:00 13,6 11,3 15,7 19,0 17,1 4 2 12 7 SSE 1016,4 20 10 0,0
01.06.2020 08:00:00 13,9 11,4 12,4 19,2 17,1 6 3 13 7 SSE 1015,7 20 60 0,0
01.06.2020 07:00:00 12,1 10,3 10,7 19,2 17,1 10 5 17 9 ESE 1015,6 20 28 0,0
01.06.2020 06:00:00 11,3 10,0 9,1 19,3 17,1 7 4 11 6 E 1015,3 20 0 0,0
01.06.2020 05:00:00 11,7 9,8 10,6 19,5 17,1 7 4 15 8 ESE 1015,2 20 0 0,0
01.06.2020 04:00:00 12,0 10,1 10,8 19,5 17,1 9 5 15 8 ESE 1015,3 20 0 0,0
01.06.2020 03:00:00 12,7 10,1 10,9 19,6 17,1 5 3 11 6 SE 1015,2 20 0 0,0
01.06.2020 02:00:00 13,1 9,7 11,6 19,7 17,1 8 4 14 7 E 1015,2 20 0 0,0
01.06.2020 01:00:00 13,1 10,6 11,3 19,7 17,1 8 4 16 9 ENE 1015,4 20 0 0,0
01.06.2020 00:00:00 13,3 11,4 11,0 19,8 17,1 4 2 16 9 SSE 1015,4 20 0 0,0
31.05.2020 23:00:00 13,6 11,1 11,9 19,8 17,1 7 4 24 13 SSE 1015,4 20 0 0,0
31.05.2020 22:00:00 14,8 11,9 14,1 19,8 17,1 13 7 24 13 SE 1014,6 20 0 0,0
31.05.2020 21:00:00 16,3 11,7 15,6 19,7 17,1 17 9 31 17 SSE 1013,7 20 60 0,0
31.05.2020 20:00:00 18,6 11,7 21,8 19,6 17,1 17 9 30 16 S 1012,5 20 60 0,0
31.05.2020 19:00:00 20,3 11,2 24,2 19,4 17,1 17 9 32 17 SSE 1011,3 20 60 0,0
31.05.2020 18:00:00 20,8 11,4 26,7 19,3 17,1 19 11 32 18 SSE 1011,5 20 60 0,0
31.05.2020 17:00:00 21,4 12,0 26,6 19,1 17,0 21 11 33 18 S 1011,5 20 58 0,0
31.05.2020 16:00:00 20,8 11,1 22,7 19,0 17,1 18 10 39 21 SSE 1012,2 20 47 0,0
31.05.2020 15:00:00 20,3 11,8 22,2 18,9 17,1 21 11 31 17 SSE 1012,6 20 39 0,0
31.05.2020 14:00:00 20,8 12,0 24,4 18,8 17,1 16 9 32 18 SSE 1012,5 20 45 0,0
31.05.2020 13:00:00 19,7 12,0 24,4 18,8 17,0 20 11 34 18 SSE 1013,1 20 56 0,0
31.05.2020 12:00:00 19,0 12,0 22,5 18,8 17,0 20 11 30 16 SE 1013,1 20 43 0,0
31.05.2020 11:00:00 17,4 12,9 19,5 18,8 17,0 11 6 21 11 SE 1013,5 20 34 0,0
31.05.2020 10:00:00 15,8 11,8 17,7 18,9 17,0 8 4 15 8 E 1014,2 20 25 0,0
31.05.2020 09:00:00 13,8 11,3 14,3 19,0 17,0 6 3 14 8 E 1014,8 20 18 0,0
31.05.2020 08:00:00 12,0 10,9 11,7 19,1 17,0 10 5 14 8 NE 1015,3 19 3 0,0
31.05.2020 07:00:00 11,2 10,6 11,0 19,2 17,0 7 4 10 5 NE 1015,4 12 0 0,0
31.05.2020 06:00:00 10,9 10,4 8,5 19,3 17,0 6 3 11 6 ESE 1015,2 17 0 0,0
31.05.2020 05:00:00 11,4 9,5 8,8 19,5 17,0 0 0 10 5 N 1014,9 20 0 0,0
31.05.2020 04:00:00 11,9 9,6 9,5 19,6 17,0 3 2 9 5 NE 1015,1 20 0 0,0
31.05.2020 03:00:00 12,4 10,1 10,3 19,7 17,0 5 3 11 6 NE 1015,2 20 0 0,0
31.05.2020 02:00:00 12,2 10,4 10,4 19,7 17,0 4 2 12 6 NE 1015,6 20 0 0,0
31.05.2020 01:00:00 12,9 10,8 12,0 19,8 17,0 8 4 13 7 E 1015,7 20 0 0,0
31.05.2020 00:00:00 13,4 10,9 12,4 19,9 17,0 10 5 19 11 ESE 1015,2 20 0 0,0
30.05.2020 23:00:00 13,3 11,0 12,7 19,9 17,0 17 9 21 12 ESE 1015,2 20 0 0,0
30.05.2020 22:00:00 14,3 11,3 12,7 19,9 17,0 11 6 16 9 E 1014,3 20 0 0,0
30.05.2020 21:00:00 14,6 11,7 13,5 19,8 16,9 14 8 22 12 SE 1013,9 20 29 0,0
30.05.2020 20:00:00 15,1 11,9 13,3 19,7 16,9 10 5 26 14 SE 1013,7 20 2 2,0
30.05.2020 19:00:00 15,2 12,0 13,8 19,6 16,9 16 9 42 23 SE 1013,2 17 0 6,7
30.05.2020 18:00:00 21,2 10,4 25,5 19,5 16,9 22 12 32 17 S 1011,5 19 42 0,0
30.05.2020 17:00:00 22,6 9,4 31,3 19,4 16,9 16 9 29 15 SW 1011,6 20 60 0,0
30.05.2020 16:00:00 21,0 9,9 22,6 19,2 16,9 12 7 24 13 S 1012,4 20 31 0,0
30.05.2020 15:00:00 19,6 9,5 22,7 19,2 16,9 14 8 26 14 SSE 1013,4 20 14 0,0
30.05.2020 14:00:00 20,1 10,2 25,3 19,1 16,8 15 8 26 14 SSE 1013,7 20 46 0,0
30.05.2020 13:00:00 18,9 10,7 24,3 19,1 16,8 10 5 26 14 SE 1014,4 20 44 0,0
30.05.2020 12:00:00 18,4 10,7 21,6 19,2 16,8 15 8 26 14 SE 1014,8 20 37 0,0
30.05.2020 11:00:00 17,0 10,1 18,5 19,2 16,8 13 7 23 12 SE 1015,6 20 31 0,0
30.05.2020 10:00:00 14,6 10,0 15,5 19,3 16,8 10 5 18 10 ESE 1016,6 20 0 0,0
30.05.2020 09:00:00 13,3 9,7 13,6 19,4 16,8 8 5 15 8 ESE 1017,1 20 0 0,0
30.05.2020 08:00:00 12,0 9,2 11,9 19,6 16,8 8 4 16 9 ENE 1017,4 20 0 0,0
30.05.2020 07:00:00 11,5 8,9 10,0 19,6 16,8 10 5 21 11 E 1017,6 20 0 0,0
30.05.2020 06:00:00 10,8 7,8 9,8 19,7 16,8 14 8 20 11 ESE 1017,8 20 0 0,0
30.05.2020 05:00:00 10,9 6,4 9,3 19,8 16,8 9 5 16 8 ESE 1018,2 20 0 0,0
30.05.2020 04:00:00 11,3 5,6 9,9 19,9 16,8 9 5 25 14 ESE 1018,5 20 0 0,0
30.05.2020 03:00:00 11,3 5,8 10,4 20,0 16,7 14 8 30 16 SE 1018,7 20 0 0,0
30.05.2020 02:00:00 12,1 5,9 11,4 20,1 16,7 18 10 27 15 SE 1018,6 20 0 0,0
30.05.2020 01:00:00 12,3 7,0 11,7 20,1 16,7 18 10 33 18 SE 1018,8 20 0 0,0
30.05.2020 00:00:00 12,9 7,3 12,7 20,1 16,7 23 13 40 22 SE 1018,7 20 0 0,0
29.05.2020 23:00:00 13,7 8,1 13,5 20,1 16,7 28 15 40 22 ESE 1018,4 20 0 0,0
29.05.2020 22:00:00 14,5 10,9 14,3 20,1 16,7 26 14 38 21 SE 1017,5 20 0 0,0
29.05.2020 21:00:00 15,7 12,1 16,0 20,0 16,7 26 14 48 26 ESE 1016,7 20 13 0,0
29.05.2020 20:00:00 17,9 12,1 19,0 19,9 16,7 29 16 48 26 SSE 1015,2 20 43 0,0
29.05.2020 19:00:00 21,5 10,3 23,1 19,7 16,6 26 14 40 22 SSE 1012,8 20 46 0,0
29.05.2020 18:00:00 23,9 8,7 31,5 19,6 16,6 16 8 22 12 SSE 1012,2 20 60 0,0
29.05.2020 17:00:00 24,6 2,1 32,0 19,4 16,6 8 4 22 12 ESE 1012,4 20 60 0,0
29.05.2020 16:00:00 24,5 3,2 33,0 19,3 16,6 11 6 22 12 S 1012,7 20 60 0,0
29.05.2020 15:00:00 23,2 4,7 25,3 19,2 16,6 6 3 29 16 NE 1013,7 20 50 0,0
29.05.2020 14:00:00 22,2 3,3 26,1 19,1 16,6 7 4 24 13 NNW 1014,4 20 40 0,0
29.05.2020 13:00:00 22,1 5,1 27,6 19,1 16,6 8 4 25 13 NW 1014,7 20 20 0,0
29.05.2020 12:00:00 21,4 5,7 28,3 19,1 16,6 10 6 21 11 NE 1015,2 20 51 0,0
29.05.2020 11:00:00 20,3 6,6 26,3 19,2 16,6 11 6 24 13 NE 1015,6 20 60 0,0
29.05.2020 10:00:00 18,7 7,5 23,8 19,2 16,5 16 8 25 13 NE 1016,4 20 60 0,0
29.05.2020 09:00:00 16,8 7,4 17,5 19,3 16,5 13 7 24 13 NE 1017,3 20 60 0,0
29.05.2020 08:00:00 14,8 6,4 14,0 19,5 16,5 21 11 29 15 NNE 1018,2 20 60 0,0
29.05.2020 07:00:00 13,4 5,5 10,6 19,6 16,5 16 9 24 13 NNE 1018,9 20 27 0,0
29.05.2020 06:00:00 12,6 5,3 10,3 19,6 16,5 11 6 19 11 NNE 1019,2 20 0 0,0
29.05.2020 05:00:00 13,6 5,2 12,4 19,7 16,5 16 9 29 15 NNE 1019,1 20 0 0,0
29.05.2020 04:00:00 14,8 5,0 13,4 19,8 16,5 21 12 27 15 NNE 1019,1 20 0 0,0

tt = Température de l'air
td = dewpoint
tt 5cm = Température de l'air 5cm
tt -20cm = Température de l'air -20cm
tt -100cm = Température de l'air -100cm
ff = Vitesse du vent
fx = gusts
dd = Direction du vent
ppp = reduced air pressure
vv = visibility
sd = Ensoleillement
rr = Quantités de précipitations

stations d'obs. à proximité